User: anonymous   Login
Location: Unspecified
(0.0000°N, 0.0000°E)
Time: 01:34:54
(UTC+00:00)
Language:

USA 229 - Orbit

View from above orbital plane
View from above orbital plane
View from above satellite
View from above satellite

Ground track
Ground track

The orbit data is extracted from the following two-line orbital elements,

1 37386U 11014A   17081.18626184 0.00000000  00000-0  00000-0 0    00
2 37386  63.4340 237.7100 0062000   5.5950 354.4050 13.40728706    00
Epoch (UTC): 22 March 2017 04:28:13
Eccentricity: 0.0062000
inclination: 63.4340°
perigee height: 1060 km
apogee height: 1153 km
right ascension of ascending node: 237.7100°
argument of perigee: 5.5950°
revolutions per day: 13.40728706
mean anomaly at epoch: 354.4050°
orbit number at epoch: 0

The dashed part of the orbit path shows where the satellite is in the earth's shadow,  

DLR